Location: Red Rock Farm
(35.2100°N, 97.2200°W)
Time: 03:03:36
(UTC-05:00)

ISS - All Passes

Search period start: 26 April 2017 00:00
Search period end: 06 May 2017 00:00
Orbit: 400 x 409 km, 51.6° (Epoch: 26 April)

Date Brightness Start Highest point End Pass type
(mag) Time Alt. Az. Time Alt. Az. Time Alt. Az.
26 Apr - 09:17:36 10° WSW 09:20:48 61° NW 09:24:02 10° NE daylight
26 Apr - 10:57:30 10° NNW 10:57:50 10° NNW 10:58:11 10° NNW daylight
26 Apr - 15:48:02 10° NNW 15:51:03 33° NE 15:54:01 10° ESE daylight
26 Apr - 17:25:00 10° W 17:27:19 18° SW 17:29:38 10° S daylight
27 Apr - 08:25:20 10° SW 08:28:32 59° SE 08:31:44 10° NE daylight
27 Apr - 10:03:13 10° WNW 10:05:15 15° NNW 10:07:17 10° N daylight
27 Apr - 14:56:08 10° NNW 14:58:35 19° NNE 15:01:02 10° E daylight
27 Apr - 16:32:07 10° WNW 16:35:09 38° SW 16:38:12 10° SSE daylight
28 Apr - 07:33:32 10° S 07:36:19 26° SE 07:39:07 10° ENE daylight
28 Apr - 09:10:00 10° W 09:12:45 25° NW 09:15:31 10° NNE daylight
28 Apr - 14:04:33 10° N 14:06:01 12° NNE 14:07:29 10° NE daylight
28 Apr - 15:39:39 10° NW 15:42:54 89° WSW 15:46:08 10° SE daylight
29 Apr - 06:42:38 10° SSE 06:44:11 13° SE 06:45:43 10° E daylight
29 Apr - 08:17:10 10° WSW 08:20:19 47° NW 08:23:28 10° NE daylight
29 Apr - 14:47:27 10° NW 14:50:33 42° NE 14:53:39 10° ESE daylight
29 Apr - 16:24:55 10° W 16:26:44 14° SW 16:28:33 10° SSW daylight
30 Apr - 07:24:43 10° SW 07:27:59 79° SE 07:31:13 10° NE daylight
30 Apr - 09:03:07 10° WNW 09:04:47 13° NNW 09:06:28 10° N daylight
30 Apr - 13:55:25 10° NNW 13:58:05 23° NNE 14:00:46 10° E daylight
30 Apr - 15:31:41 10° WNW 15:34:34 29° SW 15:37:26 10° SSE daylight
01 May - 06:32:42 10° SSW 06:35:42 34° SE 06:38:41 10° ENE daylight
01 May - 08:09:39 10° W 08:12:13 21° NNW 08:14:46 10° NNE daylight
01 May - 13:03:39 10° N 13:05:32 14° NNE 13:07:25 10° ENE daylight
01 May - 14:39:05 10° NW 14:42:18 67° SW 14:45:31 10° SE daylight
02 May - 05:41:20 10° S 05:43:29 16° SE 05:45:38 10° E visible
02 May - 07:16:40 10° WSW 07:19:43 37° NW 07:22:47 10° NNE daylight
02 May - 13:46:45 10° NW 13:49:56 54° NE 13:53:07 10° ESE daylight
02 May - 15:25:06 10° WSW 15:26:02 11° SW 15:26:56 10° SW daylight
03 May - 06:24:03 10° SW 06:27:18 79° NW 06:30:34 10° NE daylight
03 May - 08:03:02 10° NW 08:04:14 12° NNW 08:05:26 10° N daylight
03 May - 12:54:37 10° NNW 12:57:29 28° NE 13:00:19 10° E daylight
03 May - 14:31:13 10° WNW 14:33:51 23° SW 14:36:27 10° S daylight
04 May - 05:31:50 10° SSW 05:34:58 45° SE 05:38:06 10° ENE visible
04 May - 07:09:16 10° WNW 07:11:35 18° NNW 07:13:54 10° NNE daylight
04 May - 12:02:42 10° NNW 12:04:54 17° NNE 12:07:06 10° ENE daylight
04 May - 13:38:25 10° WNW 13:41:35 50° SW 13:44:43 10° SSE daylight
05 May - 04:40:09 10° S 04:42:41 21° SE 04:45:14 10° ENE visible
05 May - 06:16:05 10° W 06:19:01 30° NW 06:21:57 10° NNE daylight
05 May - 11:11:18 10° N 11:12:14 11° NNE 11:13:10 10° NE daylight
05 May - 12:45:58 10° NW 12:49:12 71° NE 12:52:26 10° SE daylight
